Location: Unspecified
(0.0000°N, 0.0000°E)
Time: 21:21:19
(UTC+00:00)

STARLINK-1664 - Visible Passes

Search period start: 12 January 2025 00:00
Search period end: 22 January 2025 00:00
Orbit: 546 x 548 km, 53.1° (Epoch: 12 January)

Date Brightness Start Highest point End Pass type
(mag) Time Alt. Az. Time Alt. Az. Time Alt. Az.
13 Jan 3.8 19:43:29 10° NNW 19:46:47 56° NNW 19:46:47 56° NNW visible
14 Jan 4.0 19:37:12 10° NW 19:41:16 63° SW 19:45:21 10° SSE visible
15 Jan 5.0 19:31:07 10° NW 19:34:57 39° SW 19:38:49 10° SSE visible
16 Jan 6.0 19:25:16 10° WNW 19:28:41 25° SW 19:32:05 10° S visible
17 Jan 6.7 19:19:47 10° W 19:22:24 16° SW 19:25:03 10° SSW visible
18 Jan 5.8 05:36:22 10° S 05:40:01 30° SE 05:43:40 10° ENE visible
18 Jan 7.3 19:15:17 10° WSW 19:16:10 11° SW 19:17:03 10° SW visible
19 Jan 4.7 05:29:46 10° SSW 05:33:46 48° SE 05:37:45 10° NE visible
20 Jan 3.7 05:23:23 10° SSW 05:27:31 80° SE 05:31:38 10° NE visible
21 Jan 3.5 05:17:12 10° SW 05:21:16 63° WNW 05:25:20 10° NNE visible
